{"data":{"norad_id":68035,"epoch":"2026-05-24T19:34:15.394944Z","epoch_age_seconds":84148,"freshness":"FRESH","line1":"1 68035U 26040W   26144.81545596  .00019055  00000+0  59096-3 0  9995","line2":"2 68035  97.2849  93.9025 0001802 105.1259 255.0183 15.33449301 14265","mean_motion":15.33449301,"eccentricity":0.0001802,"inclination_deg":97.2849,"raan_deg":93.9025,"arg_perigee_deg":105.1259,"mean_anomaly_deg":255.0183,"bstar":0.00059096,"rev_number":1426,"period_min":93.905941269851,"perigee_km":464.29714889658,"apogee_km":466.76360661952,"semimajor_km":6843.6673777581,"source":"CELESTRAK","updated_at":"2026-05-25T13:38:21.808648Z"}}